KOCH

Details ICAO KOCH
Name A L Mangham JR RGNL
Region United States
Timezone America/Chicago (UTC-5.0)
Plans Departing 12
Arriving 9
Stats Elevation 355 ft / 108 m (AMSL)
Location 31.577770° -94.710129°
Runways 1
Magnetic Variation 1.983° E
Sunrise 2018-05-20 11:20:46 UTC / 2018-05-20 06:20:46 Local
Sunset 2018-05-21 01:12:51 UTC / 2018-05-20 20:12:51 Local
Advertisement - Login to hide

Runways

ID Width Length Bearing (true) Bearing (mag) Surface Threshold Offset Overrun Length
18 75 ft / 23 m 5,016 ft / 1,529 m 184.47° 182.49° Asphalt 0 ft / 0 m 0 ft / 0 m
36 75 ft / 23 m 5,016 ft / 1,529 m 4.47° 2.49° Asphalt 0 ft / 0 m 0 ft / 0 m

Approach Navaids

Runway Type Ident Frequency Range Bearing (true) Bearing (mag) Slope Elevation
36 Localiser IOCH 111.50 MHz 18 nm / 33 km 4.49° 2.51° - 355 ft / 108 m (AMSL)
36 Glidescope IOCH 111.50 MHz 10 nm / 19 km 4.47° 2.49° 3.00° 337 ft / 103 m (AMSL)
36 DME IOCH 111.50 MHz 18 nm / 33 km - - - 355 ft / 108 m (AMSL)

Map

Weather


0- 5 10 15 20 25 30 35+ Temperature / ° C

Clouds and Precipitation
Forecast for 2018-05-20 12:00 UTC. Updated an hour ago

Ground ~20,000 ft ~40,000 ft Winds

METAR

KOCH 200956Z AUTO 00000KT 10SM 20/19 A3002 RMK AO2 SLP167 T02000189 $

TAF

Not found

Frequencies

Recorded 135.62 MHz AWOS 3
Unicom 123.00 MHz CTAF/UNICOM
Warning: Do not use this data for real-world aviation or navigation. No guarantee of current accuracy is given.